Time,TemperatureF,DewpointF,PressureIn,WindDirection,WindDirectionDegrees,WindSpeedMPH,WindSpeedGustMPH,Humidity,HourlyPrecipIn,Conditions,Clouds,dailyrainin,SoftwareType,DateUTC
2013-06-14 00:02:00,65.8,57.4,29.97,NE,45,6.0,8.0,74,0.00,,,0.00,meteohub,2013-06-14 05:02:00,
2013-06-14 00:07:00,66.2,57.7,29.97,SE,135,4.0,8.0,74,0.00,,,0.00,meteohub,2013-06-14 05:07:00,
2013-06-14 00:12:00,66.2,57.7,29.97,NE,45,7.0,10.0,74,0.00,,,0.00,meteohub,2013-06-14 05:12:00,
2013-06-14 00:17:00,65.8,57.7,29.98,NE,45,3.0,10.0,75,0.00,,,0.00,meteohub,2013-06-14 05:17:00,
2013-06-14 00:22:00,65.5,57.7,29.98,North,0,4.0,10.0,76,0.00,,,0.00,meteohub,2013-06-14 05:22:00,
2013-06-14 00:27:00,65.5,57.7,29.98,North,0,4.0,7.0,76,0.00,,,0.00,meteohub,2013-06-14 05:27:00,
2013-06-14 00:32:00,65.3,57.9,29.98,North,0,4.0,5.0,77,0.00,,,0.00,meteohub,2013-06-14 05:32:00,
2013-06-14 00:37:00,65.1,57.7,29.99,NE,45,4.0,5.0,77,0.00,,,0.00,meteohub,2013-06-14 05:37:00,
2013-06-14 00:42:00,65.3,57.9,29.98,NE,45,4.0,5.0,77,0.00,,,0.00,meteohub,2013-06-14 05:42:00,
2013-06-14 00:47:00,65.1,57.7,29.98,NE,45,4.0,5.0,77,0.00,,,0.00,meteohub,2013-06-14 05:47:00,
2013-06-14 00:52:00,64.9,57.9,29.98,East,90,4.0,5.0,78,0.00,,,0.00,meteohub,2013-06-14 05:52:00,
2013-06-14 00:57:00,64.9,57.9,29.99,NE,45,4.0,7.0,78,0.00,,,0.00,meteohub,2013-06-14 05:57:00,
2013-06-14 01:03:00,65.1,58.5,29.98,East,90,4.0,7.0,79,0.00,,,0.00,meteohub,2013-06-14 06:03:00,
2013-06-14 01:08:00,64.9,58.3,29.98,NE,45,5.0,8.0,79,0.00,,,0.00,meteohub,2013-06-14 06:08:00,
2013-06-14 01:13:00,65.1,58.5,29.99,East,90,2.0,8.0,79,0.00,,,0.00,meteohub,2013-06-14 06:13:00,
2013-06-14 01:18:00,64.9,58.3,29.99,SE,135,2.0,6.0,79,0.00,,,0.00,meteohub,2013-06-14 06:18:00,
2013-06-14 01:23:00,64.8,58.1,29.99,East,90,4.0,8.0,79,0.00,,,0.00,meteohub,2013-06-14 06:23:00,
2013-06-14 01:28:00,64.6,57.9,29.99,SE,135,3.0,8.0,79,0.00,,,0.00,meteohub,2013-06-14 06:28:00,
2013-06-14 01:33:00,64.2,58.3,29.99,SE,135,4.0,7.0,81,0.00,,,0.00,meteohub,2013-06-14 06:33:00,
2013-06-14 01:38:00,64.2,58.3,29.99,SE,135,4.0,7.0,81,0.00,,,0.00,meteohub,2013-06-14 06:38:00,
2013-06-14 01:43:00,63.9,57.9,29.99,SE,135,3.0,4.0,81,0.00,,,0.00,meteohub,2013-06-14 06:43:00,
2013-06-14 01:48:00,63.5,57.9,29.99,East,90,4.0,4.0,82,0.00,,,0.00,meteohub,2013-06-14 06:48:00,
2013-06-14 01:54:00,63.3,58.1,29.99,SE,135,4.0,5.0,83,0.00,,,0.00,meteohub,2013-06-14 06:54:00,
2013-06-14 01:59:00,63.0,57.7,29.99,East,90,4.0,7.0,83,0.00,,,0.00,meteohub,2013-06-14 06:59:00,
2013-06-14 02:04:00,62.8,57.9,29.99,SE,135,4.0,7.0,84,0.00,,,0.00,meteohub,2013-06-14 07:04:00,
2013-06-14 02:09:00,62.4,58.1,29.99,East,90,4.0,7.0,86,0.00,,,0.00,meteohub,2013-06-14 07:09:00,
2013-06-14 02:14:00,62.2,58.3,30.00,NE,45,4.0,5.0,87,0.00,,,0.00,meteohub,2013-06-14 07:14:00,
2013-06-14 02:20:00,62.1,58.1,30.00,East,90,5.0,5.0,87,0.00,,,0.00,meteohub,2013-06-14 07:20:00,
2013-06-14 02:25:00,61.9,58.3,30.00,East,90,8.0,8.0,88,0.00,,,0.00,meteohub,2013-06-14 07:25:00,
2013-06-14 02:31:00,61.5,58.3,30.00,NE,45,7.0,8.0,89,0.00,,,0.00,meteohub,2013-06-14 07:31:00,
2013-06-14 02:36:00,61.3,58.1,30.00,South,180,5.0,8.0,89,0.00,,,0.00,meteohub,2013-06-14 07:36:00,
2013-06-14 02:41:00,60.8,57.6,30.00,East,90,6.0,8.0,89,0.00,,,0.00,meteohub,2013-06-14 07:41:00,
2013-06-14 02:46:00,60.4,57.6,30.01,East,90,8.0,8.0,90,0.00,,,0.00,meteohub,2013-06-14 07:46:00,
2013-06-14 02:51:00,60.3,57.4,30.01,SE,135,7.0,9.0,90,0.00,,,0.00,meteohub,2013-06-14 07:51:00,
2013-06-14 02:56:00,60.3,57.0,30.01,East,90,8.0,10.0,89,0.00,,,0.00,meteohub,2013-06-14 07:56:00,
2013-06-14 03:01:00,60.3,56.7,30.01,South,180,6.0,10.0,88,0.00,,,0.00,meteohub,2013-06-14 08:01:00,
2013-06-14 03:06:00,60.3,56.7,30.01,South,180,6.0,10.0,88,0.00,,,0.00,meteohub,2013-06-14 08:06:00,
2013-06-14 03:11:00,59.9,56.3,30.02,SE,135,7.0,9.0,88,0.00,,,0.00,meteohub,2013-06-14 08:11:00,
2013-06-14 03:17:00,59.7,55.8,30.02,SE,135,8.0,9.0,87,0.00,,,0.00,meteohub,2013-06-14 08:17:00,
2013-06-14 03:22:00,59.5,55.6,30.02,SE,135,8.0,9.0,87,0.00,,,0.00,meteohub,2013-06-14 08:22:00,
2013-06-14 03:27:00,59.2,55.6,30.02,SE,135,9.0,11.0,88,0.00,,,0.00,meteohub,2013-06-14 08:27:00,
2013-06-14 03:32:00,59.2,55.6,30.02,SE,135,8.0,11.0,88,0.00,,,0.00,meteohub,2013-06-14 08:32:00,
2013-06-14 03:37:00,59.0,55.2,30.02,East,90,8.0,11.0,87,0.00,,,0.00,meteohub,2013-06-14 08:37:00,
2013-06-14 03:42:00,59.0,55.2,30.02,South,180,12.0,13.0,87,0.00,,,0.00,meteohub,2013-06-14 08:42:00,
2013-06-14 03:47:00,58.8,55.6,30.03,South,180,8.0,13.0,89,0.00,,,0.00,meteohub,2013-06-14 08:47:00,
2013-06-14 03:52:00,58.6,55.4,30.03,SE,135,8.0,13.0,89,0.00,,,0.00,meteohub,2013-06-14 08:52:00,
2013-06-14 03:57:00,58.5,55.2,30.03,SE,135,8.0,12.0,89,0.00,,,0.00,meteohub,2013-06-14 08:57:00,
2013-06-14 04:02:00,58.1,54.9,30.03,SE,135,7.0,11.0,89,0.00,,,0.00,meteohub,2013-06-14 09:02:00,
2013-06-14 04:07:00,57.9,55.0,30.03,South,180,5.0,10.0,90,0.00,,,0.00,meteohub,2013-06-14 09:07:00,
2013-06-14 04:12:00,57.7,55.2,30.03,SE,135,8.0,9.0,91,0.00,,,0.00,meteohub,2013-06-14 09:12:00,
2013-06-14 04:17:00,57.6,55.0,30.02,SE,135,4.0,9.0,91,0.00,,,0.00,meteohub,2013-06-14 09:17:00,
2013-06-14 04:22:00,57.4,55.0,30.02,SE,135,7.0,9.0,92,0.00,,,0.00,meteohub,2013-06-14 09:22:00,
2013-06-14 04:27:00,57.4,55.0,30.02,SE,135,5.0,9.0,92,0.00,,,0.00,meteohub,2013-06-14 09:27:00,
2013-06-14 04:32:00,57.0,55.0,30.03,East,90,8.0,9.0,93,0.00,,,0.00,meteohub,2013-06-14 09:32:00,
2013-06-14 04:37:00,57.0,55.0,30.03,SE,135,7.0,9.0,93,0.00,,,0.00,meteohub,2013-06-14 09:37:00,
2013-06-14 04:42:00,57.0,54.7,30.04,East,90,7.0,9.0,92,0.00,,,0.00,meteohub,2013-06-14 09:42:00,
2013-06-14 04:47:00,56.8,54.9,30.04,SE,135,6.0,8.0,93,0.00,,,0.00,meteohub,2013-06-14 09:47:00,
2013-06-14 04:53:00,56.8,54.9,30.04,SE,135,4.0,8.0,93,0.00,,,0.00,meteohub,2013-06-14 09:53:00,
2013-06-14 04:58:00,56.7,54.7,30.04,SE,135,6.0,8.0,93,0.00,,,0.00,meteohub,2013-06-14 09:58:00,
2013-06-14 05:03:00,56.7,54.7,30.04,SE,135,4.0,8.0,93,0.00,,,0.00,meteohub,2013-06-14 10:03:00,
2013-06-14 05:08:00,56.5,54.1,30.04,SE,135,5.0,8.0,92,0.00,,,0.00,meteohub,2013-06-14 10:08:00,
2013-06-14 05:13:00,56.3,54.0,30.04,South,180,4.0,7.0,92,0.00,,,0.00,meteohub,2013-06-14 10:13:00,
2013-06-14 05:18:00,55.9,53.6,30.04,East,90,4.0,5.0,92,0.00,,,0.00,meteohub,2013-06-14 10:18:00,
2013-06-14 05:23:00,55.9,53.6,30.04,SE,135,6.0,6.0,92,0.00,,,0.00,meteohub,2013-06-14 10:23:00,
2013-06-14 05:28:00,55.9,53.6,30.04,SE,135,6.0,8.0,92,0.00,,,0.00,meteohub,2013-06-14 10:28:00,
2013-06-14 05:33:00,55.9,53.6,30.04,SE,135,4.0,8.0,92,0.00,,,0.00,meteohub,2013-06-14 10:33:00,
2013-06-14 05:38:00,55.9,53.6,30.04,SE,135,4.0,8.0,92,0.00,,,0.00,meteohub,2013-06-14 10:38:00,
2013-06-14 05:43:00,55.9,53.6,30.04,SE,135,4.0,7.0,92,0.00,,,0.00,meteohub,2013-06-14 10:43:00,
2013-06-14 05:48:00,56.3,54.0,30.04,East,90,5.0,7.0,92,0.00,,,0.00,meteohub,2013-06-14 10:48:00,
2013-06-14 05:53:00,56.3,53.4,30.05,SE,135,4.0,6.0,90,0.00,,,0.00,meteohub,2013-06-14 10:53:00,
2013-06-14 05:58:00,56.5,53.6,30.05,SE,135,3.0,6.0,90,0.00,,,0.00,meteohub,2013-06-14 10:58:00,
2013-06-14 06:03:00,56.7,53.4,30.05,SE,135,5.0,6.0,89,0.00,,,0.00,meteohub,2013-06-14 11:03:00,
2013-06-14 06:08:00,57.2,53.6,30.06,South,180,4.0,6.0,88,0.00,,,0.00,meteohub,2013-06-14 11:08:00,
2013-06-14 06:13:00,57.6,53.8,30.06,SE,135,3.0,5.0,87,0.00,,,0.00,meteohub,2013-06-14 11:13:00,
2013-06-14 06:18:00,58.1,54.0,30.06,SE,135,4.0,5.0,86,0.00,,,0.00,meteohub,2013-06-14 11:18:00,
2013-06-14 06:23:00,58.6,54.1,30.06,SE,135,5.0,5.0,85,0.00,,,0.00,meteohub,2013-06-14 11:23:00,
2013-06-14 06:28:00,59.2,54.0,30.06,SE,135,4.0,5.0,83,0.00,,,0.00,meteohub,2013-06-14 11:28:00,
2013-06-14 06:34:00,59.4,54.1,30.06,SE,135,2.0,5.0,83,0.00,,,0.00,meteohub,2013-06-14 11:34:00,
2013-06-14 06:39:00,59.5,54.0,30.06,SE,135,3.0,5.0,82,0.00,,,0.00,meteohub,2013-06-14 11:39:00,
2013-06-14 06:44:00,59.7,54.0,30.06,South,180,2.0,4.0,81,0.00,,,0.00,meteohub,2013-06-14 11:44:00,
2013-06-14 06:49:00,60.1,54.3,30.06,SE,135,2.0,4.0,81,0.00,,,0.00,meteohub,2013-06-14 11:49:00,
2013-06-14 06:54:00,60.1,54.0,30.06,SE,135,2.0,4.0,80,0.00,,,0.00,meteohub,2013-06-14 11:54:00,
2013-06-14 06:59:00,60.3,54.1,30.07,SE,135,4.0,4.0,80,0.00,,,0.00,meteohub,2013-06-14 11:59:00,
2013-06-14 07:04:00,60.3,53.8,30.06,East,90,3.0,4.0,79,0.00,,,0.00,meteohub,2013-06-14 12:04:00,
2013-06-14 07:09:00,60.3,53.8,30.06,SE,135,3.0,4.0,79,0.00,,,0.00,meteohub,2013-06-14 12:09:00,
2013-06-14 07:14:00,60.3,53.8,30.07,SE,135,3.0,4.0,79,0.00,,,0.00,meteohub,2013-06-14 12:14:00,
2013-06-14 07:19:00,60.4,54.0,30.08,East,90,2.0,4.0,79,0.00,,,0.00,meteohub,2013-06-14 12:19:00,
2013-06-14 07:24:00,60.8,53.6,30.07,South,180,2.0,4.0,77,0.00,,,0.00,meteohub,2013-06-14 12:24:00,
2013-06-14 07:29:00,60.8,53.6,30.08,SE,135,2.0,4.0,77,0.00,,,0.00,meteohub,2013-06-14 12:29:00,
2013-06-14 07:34:00,61.0,53.8,30.08,East,90,2.0,3.0,77,0.00,,,0.00,meteohub,2013-06-14 12:34:00,
2013-06-14 07:39:00,61.5,54.3,30.08,East,90,2.0,4.0,77,0.00,,,0.00,meteohub,2013-06-14 12:39:00,
2013-06-14 07:44:00,62.1,54.0,30.07,East,90,4.0,4.0,75,0.00,,,0.00,meteohub,2013-06-14 12:44:00,
2013-06-14 07:49:00,62.6,54.1,30.07,East,90,4.0,4.0,74,0.00,,,0.00,meteohub,2013-06-14 12:49:00,
2013-06-14 07:54:00,63.0,53.8,30.07,East,90,4.0,5.0,72,0.00,,,0.00,meteohub,2013-06-14 12:54:00,
2013-06-14 07:59:00,63.1,54.0,30.07,SE,135,4.0,5.0,72,0.00,,,0.00,meteohub,2013-06-14 12:59:00,
2013-06-14 08:05:00,63.3,53.8,30.07,SE,135,7.0,7.0,71,0.00,,,0.00,meteohub,2013-06-14 13:05:00,
2013-06-14 08:10:00,63.1,53.2,30.07,SE,135,4.0,7.0,70,0.00,,,0.00,meteohub,2013-06-14 13:10:00,
2013-06-14 08:15:00,63.3,53.4,30.07,East,90,6.0,7.0,70,0.00,,,0.00,meteohub,2013-06-14 13:15:00,
2013-06-14 08:20:00,63.3,53.1,30.07,SE,135,10.0,10.0,69,0.00,,,0.00,meteohub,2013-06-14 13:20:00,
2013-06-14 08:25:00,63.5,52.3,30.07,ESE,113,8.0,10.0,67,0.00,,,0.00,meteohub,2013-06-14 13:25:00,
2013-06-14 08:30:00,63.3,53.1,30.08,SE,135,6.0,10.0,69,0.00,,,0.00,meteohub,2013-06-14 13:30:00,
2013-06-14 08:35:00,63.3,53.1,30.08,East,90,3.0,9.0,69,0.00,,,0.00,meteohub,2013-06-14 13:35:00,
2013-06-14 08:40:00,63.9,54.3,30.09,South,180,5.0,9.0,71,0.00,,,0.00,meteohub,2013-06-14 13:40:00,
2013-06-14 08:45:00,64.6,55.0,30.08,North,0,4.0,9.0,71,0.00,,,0.00,meteohub,2013-06-14 13:45:00,
2013-06-14 08:50:00,65.1,55.4,30.07,SE,135,9.0,9.0,71,0.00,,,0.00,meteohub,2013-06-14 13:50:00,
2013-06-14 08:55:00,64.9,54.9,30.07,SE,135,7.0,9.0,70,0.00,,,0.00,meteohub,2013-06-14 13:55:00,
2013-06-14 09:00:00,64.8,54.7,30.07,East,90,8.0,9.0,70,0.00,,,0.00,meteohub,2013-06-14 14:00:00,
2013-06-14 09:05:00,64.4,54.3,30.07,South,180,8.0,9.0,70,0.00,,,0.00,meteohub,2013-06-14 14:05:00,
2013-06-14 09:10:00,64.6,55.0,30.07,SE,135,8.0,11.0,71,0.00,,,0.00,meteohub,2013-06-14 14:10:00,
2013-06-14 09:15:00,65.1,56.3,30.06,East,90,8.0,11.0,73,0.00,,,0.00,meteohub,2013-06-14 14:15:00,
2013-06-14 09:20:00,65.7,56.3,30.06,South,180,8.0,11.0,72,0.00,,,0.00,meteohub,2013-06-14 14:20:00,
2013-06-14 09:25:00,65.8,57.0,30.06,East,90,4.0,11.0,73,0.00,,,0.00,meteohub,2013-06-14 14:25:00,
2013-06-14 09:31:00,66.9,56.8,30.06,East,90,7.0,11.0,70,0.00,,,0.00,meteohub,2013-06-14 14:31:00,
2013-06-14 09:36:00,66.6,55.2,30.05,SE,135,11.0,11.0,67,0.00,,,0.00,meteohub,2013-06-14 14:36:00,
2013-06-14 09:41:00,66.6,55.6,30.06,SE,135,8.0,12.0,68,0.00,,,0.00,meteohub,2013-06-14 14:41:00,
2013-06-14 09:46:00,66.9,55.6,30.06,SE,135,11.0,12.0,67,0.00,,,0.00,meteohub,2013-06-14 14:46:00,
2013-06-14 09:51:00,67.6,56.7,30.06,SE,135,10.0,11.0,68,0.00,,,0.00,meteohub,2013-06-14 14:51:00,
2013-06-14 09:56:00,67.3,55.9,30.06,South,180,7.0,11.0,67,0.00,,,0.00,meteohub,2013-06-14 14:56:00,
2013-06-14 10:01:00,66.4,55.6,30.06,SE,135,6.0,11.0,68,0.00,,,0.00,meteohub,2013-06-14 15:01:00,
2013-06-14 10:06:00,67.1,56.1,30.05,NE,45,4.0,10.0,68,0.00,,,0.00,meteohub,2013-06-14 15:06:00,
2013-06-14 10:11:00,68.4,57.0,30.05,NE,45,7.0,10.0,67,0.00,,,0.00,meteohub,2013-06-14 15:11:00,
2013-06-14 10:16:00,69.3,57.9,30.04,South,180,10.0,10.0,67,0.00,,,0.00,meteohub,2013-06-14 15:16:00,
2013-06-14 10:21:00,68.7,56.5,30.04,NE,45,7.0,10.0,65,0.00,,,0.00,meteohub,2013-06-14 15:21:00,
2013-06-14 10:26:00,69.1,56.8,30.04,East,90,5.0,10.0,65,0.00,,,0.00,meteohub,2013-06-14 15:26:00,
2013-06-14 10:31:00,69.4,57.2,30.04,East,90,5.0,10.0,65,0.00,,,0.00,meteohub,2013-06-14 15:31:00,
2013-06-14 10:36:00,69.4,56.7,30.03,East,90,7.0,10.0,64,0.00,,,0.00,meteohub,2013-06-14 15:36:00,
2013-06-14 10:41:00,69.6,57.7,30.03,East,90,8.0,10.0,66,0.00,,,0.00,meteohub,2013-06-14 15:41:00,
2013-06-14 10:46:00,69.4,57.2,30.03,SE,135,8.0,9.0,65,0.00,,,0.00,meteohub,2013-06-14 15:46:00,
2013-06-14 10:51:00,69.4,57.2,30.03,SE,135,8.0,12.0,65,0.00,,,0.00,meteohub,2013-06-14 15:51:00,
2013-06-14 10:56:00,69.4,57.2,30.04,SE,135,4.0,12.0,65,0.00,,,0.00,meteohub,2013-06-14 15:56:00,
2013-06-14 11:01:00,70.0,57.7,30.04,SE,135,4.0,12.0,65,0.00,,,0.00,meteohub,2013-06-14 16:01:00,
2013-06-14 11:06:00,70.5,57.4,30.05,NE,45,4.0,9.0,63,0.00,,,0.00,meteohub,2013-06-14 16:06:00,
2013-06-14 11:12:00,70.5,56.8,30.06,South,180,6.0,9.0,62,0.00,,,0.00,meteohub,2013-06-14 16:12:00,
2013-06-14 11:17:00,70.7,57.6,30.05,SW,225,5.0,9.0,63,0.00,,,0.00,meteohub,2013-06-14 16:17:00,
2013-06-14 11:22:00,71.2,57.9,30.06,NE,45,2.0,9.0,63,0.00,,,0.00,meteohub,2013-06-14 16:22:00,
2013-06-14 11:27:00,71.2,57.0,30.05,SE,135,5.0,7.0,61,0.00,,,0.00,meteohub,2013-06-14 16:27:00,
2013-06-14 11:32:00,71.2,57.6,30.05,NW,315,3.0,8.0,62,0.00,,,0.00,meteohub,2013-06-14 16:32:00,
2013-06-14 11:37:00,71.6,57.4,30.05,North,0,2.0,8.0,61,0.00,,,0.00,meteohub,2013-06-14 16:37:00,
2013-06-14 11:42:00,72.0,57.7,30.06,West,270,4.0,7.0,61,0.00,,,0.00,meteohub,2013-06-14 16:42:00,
2013-06-14 11:47:00,72.0,57.4,30.05,South,180,8.0,8.0,60,0.00,,,0.00,meteohub,2013-06-14 16:47:00,
2013-06-14 11:52:00,71.6,57.0,30.06,SW,225,7.0,8.0,60,0.00,,,0.00,meteohub,2013-06-14 16:52:00,
2013-06-14 11:57:00,71.6,57.4,30.06,SE,135,4.0,8.0,61,0.00,,,0.00,meteohub,2013-06-14 16:57:00,
2013-06-14 12:02:00,72.3,58.1,30.06,North,0,2.0,8.0,61,0.00,,,0.00,meteohub,2013-06-14 17:02:00,
2013-06-14 12:07:00,72.3,58.1,30.06,SW,225,2.0,8.0,61,0.00,,,0.00,meteohub,2013-06-14 17:07:00,
2013-06-14 12:12:00,72.7,58.8,30.05,NE,45,5.0,8.0,62,0.00,,,0.00,meteohub,2013-06-14 17:12:00,
2013-06-14 12:17:00,72.9,59.0,30.06,NE,45,2.0,8.0,62,0.00,,,0.00,meteohub,2013-06-14 17:17:00,
2013-06-14 12:22:00,72.7,57.6,30.05,NE,45,2.0,8.0,59,0.00,,,0.00,meteohub,2013-06-14 17:22:00,
2013-06-14 12:27:00,73.2,59.4,30.05,South,180,5.0,8.0,62,0.00,,,0.00,meteohub,2013-06-14 17:27:00,
2013-06-14 12:32:00,73.4,57.7,30.05,South,180,4.0,8.0,58,0.00,,,0.00,meteohub,2013-06-14 17:32:00,
2013-06-14 12:37:00,73.6,57.9,30.05,South,180,5.0,7.0,58,0.00,,,0.00,meteohub,2013-06-14 17:37:00,
2013-06-14 12:42:00,73.6,58.3,30.04,SE,135,4.0,8.0,59,0.00,,,0.00,meteohub,2013-06-14 17:42:00,
2013-06-14 12:47:00,73.9,59.2,30.05,South,180,8.0,8.0,60,0.00,,,0.00,meteohub,2013-06-14 17:47:00,
2013-06-14 12:52:00,73.9,57.7,30.05,SE,135,5.0,8.0,57,0.00,,,0.00,meteohub,2013-06-14 17:52:00,
2013-06-14 12:58:00,73.8,57.6,30.04,SE,135,8.0,9.0,57,0.00,,,0.00,meteohub,2013-06-14 17:58:00,
2013-06-14 13:03:00,73.6,57.9,30.05,South,180,5.0,9.0,58,0.00,,,0.00,meteohub,2013-06-14 18:03:00,
2013-06-14 13:08:00,73.9,59.2,30.04,South,180,7.0,9.0,60,0.00,,,0.00,meteohub,2013-06-14 18:08:00,
2013-06-14 13:13:00,74.1,58.8,30.04,South,180,5.0,9.0,59,0.00,,,0.00,meteohub,2013-06-14 18:13:00,
2013-06-14 13:18:00,74.3,59.5,30.04,South,180,7.0,9.0,60,0.00,,,0.00,meteohub,2013-06-14 18:18:00,
2013-06-14 13:23:00,74.3,58.1,30.04,South,180,6.0,9.0,57,0.00,,,0.00,meteohub,2013-06-14 18:23:00,
2013-06-14 13:28:00,74.3,58.6,30.04,South,180,6.0,8.0,58,0.00,,,0.00,meteohub,2013-06-14 18:28:00,
2013-06-14 13:33:00,74.8,61.0,30.03,South,180,9.0,9.0,62,0.00,,,0.00,meteohub,2013-06-14 18:33:00,
2013-06-14 13:38:00,74.7,58.8,30.03,East,90,8.0,9.0,58,0.00,,,0.00,meteohub,2013-06-14 18:38:00,
2013-06-14 18:35:00,74.1,58.8,29.94,South,180,4.0,4.0,59,0.00,,,0.00,meteohub,2013-06-14 23:35:00,
2013-06-14 18:40:00,73.9,58.6,29.94,SW,225,2.0,4.0,59,0.00,,,0.00,meteohub,2013-06-14 23:40:00,
2013-06-14 18:45:00,73.6,58.8,29.93,South,180,4.0,4.0,60,0.00,,,0.00,meteohub,2013-06-14 23:45:00,
2013-06-14 18:50:00,73.2,59.4,29.94,SW,225,4.0,4.0,62,0.00,,,0.00,meteohub,2013-06-14 23:50:00,
2013-06-14 18:55:00,73.0,59.2,29.94,West,270,3.0,4.0,62,0.00,,,0.00,meteohub,2013-06-14 23:55:00,
2013-06-14 19:00:00,72.9,59.0,29.95,SW,225,2.0,4.0,62,0.00,,,0.00,meteohub,2013-06-15 00:00:00,
2013-06-14 19:05:00,72.9,59.0,29.95,West,270,4.0,4.0,62,0.00,,,0.00,meteohub,2013-06-15 00:05:00,
2013-06-14 19:10:00,72.7,58.8,29.95,SW,225,4.0,4.0,62,0.00,,,0.00,meteohub,2013-06-15 00:10:00,
2013-06-14 19:16:00,72.7,58.8,29.95,West,270,2.0,4.0,62,0.00,,,0.00,meteohub,2013-06-15 00:16:00,
2013-06-14 19:21:00,72.5,58.8,29.95,SW,225,2.0,4.0,62,0.00,,,0.00,meteohub,2013-06-15 00:21:00,
2013-06-14 19:26:00,72.5,58.8,29.95,SW,225,3.0,4.0,62,0.00,,,0.00,meteohub,2013-06-15 00:26:00,
2013-06-14 19:31:00,72.5,58.8,29.95,SW,225,4.0,4.0,62,0.00,,,0.00,meteohub,2013-06-15 00:31:00,
2013-06-14 19:36:00,72.5,58.8,29.95,WSW,248,3.0,4.0,62,0.00,,,0.00,meteohub,2013-06-15 00:36:00,
2013-06-14 19:41:00,72.3,59.0,29.94,SW,225,2.0,4.0,63,0.00,,,0.00,meteohub,2013-06-15 00:41:00,
2013-06-14 19:46:00,72.3,59.0,29.95,South,180,2.0,4.0,63,0.00,,,0.00,meteohub,2013-06-15 00:46:00,
2013-06-14 19:51:00,72.3,59.0,29.94,SW,225,2.0,4.0,63,0.00,,,0.00,meteohub,2013-06-15 00:51:00,
2013-06-14 19:56:00,72.0,58.6,29.94,East,90,2.0,2.0,63,0.00,,,0.00,meteohub,2013-06-15 00:56:00,
2013-06-14 20:01:00,71.6,58.3,29.94,South,180,4.0,4.0,63,0.00,,,0.00,meteohub,2013-06-15 01:01:00,
2013-06-14 20:06:00,71.6,58.3,29.94,SE,135,3.0,4.0,63,0.00,,,0.00,meteohub,2013-06-15 01:06:00,
2013-06-14 20:11:00,71.6,58.3,29.94,SE,135,5.0,5.0,63,0.00,,,0.00,meteohub,2013-06-15 01:11:00,
2013-06-14 20:16:00,71.6,57.9,29.94,East,90,4.0,6.0,62,0.00,,,0.00,meteohub,2013-06-15 01:16:00,
2013-06-14 20:21:00,71.6,57.9,29.93,East,90,4.0,6.0,62,0.00,,,0.00,meteohub,2013-06-15 01:21:00,
2013-06-14 20:26:00,71.4,58.6,29.93,SE,135,4.0,6.0,64,0.00,,,0.00,meteohub,2013-06-15 01:26:00,
2013-06-14 20:31:00,71.4,59.0,29.93,SE,135,5.0,5.0,65,0.00,,,0.00,meteohub,2013-06-15 01:31:00,
2013-06-14 20:36:00,71.2,58.8,29.93,SE,135,4.0,6.0,65,0.00,,,0.00,meteohub,2013-06-15 01:36:00,
2013-06-14 20:41:00,71.1,59.2,29.93,SE,135,6.0,6.0,66,0.00,,,0.00,meteohub,2013-06-15 01:41:00,
2013-06-14 20:46:00,70.9,59.0,29.92,East,90,6.0,6.0,66,0.00,,,0.00,meteohub,2013-06-15 01:46:00,
2013-06-14 20:51:00,70.9,58.5,29.92,SE,135,7.0,7.0,65,0.00,,,0.00,meteohub,2013-06-15 01:51:00,
2013-06-14 20:56:00,70.7,58.3,29.92,SE,135,5.0,7.0,65,0.00,,,0.00,meteohub,2013-06-15 01:56:00,
2013-06-14 21:02:00,70.5,57.7,29.92,SE,135,6.0,7.0,64,0.00,,,0.00,meteohub,2013-06-15 02:02:00,
2013-06-14 21:07:00,70.5,57.7,29.92,East,90,5.0,7.0,64,0.00,,,0.00,meteohub,2013-06-15 02:07:00,
2013-06-14 21:12:00,70.5,57.4,29.92,South,180,6.0,8.0,63,0.00,,,0.00,meteohub,2013-06-15 02:12:00,
2013-06-14 21:17:00,70.5,57.4,29.92,SE,135,7.0,8.0,63,0.00,,,0.00,meteohub,2013-06-15 02:17:00,
2013-06-14 21:22:00,70.5,57.4,29.92,SE,135,8.0,8.0,63,0.00,,,0.00,meteohub,2013-06-15 02:22:00,
2013-06-14 21:27:00,70.3,57.2,29.92,SE,135,6.0,8.0,63,0.00,,,0.00,meteohub,2013-06-15 02:27:00,
2013-06-14 21:32:00,70.3,57.2,29.92,SE,135,4.0,8.0,63,0.00,,,0.00,meteohub,2013-06-15 02:32:00,
2013-06-14 21:37:00,70.2,57.4,29.91,East,90,8.0,8.0,64,0.00,,,0.00,meteohub,2013-06-15 02:37:00,
2013-06-14 21:42:00,70.2,57.4,29.91,SE,135,9.0,9.0,64,0.00,,,0.00,meteohub,2013-06-15 02:42:00,
2013-06-14 21:47:00,70.2,57.4,29.91,SE,135,8.0,9.0,64,0.00,,,0.00,meteohub,2013-06-15 02:47:00,
2013-06-14 21:52:00,70.2,57.0,29.91,SE,135,6.0,9.0,63,0.00,,,0.00,meteohub,2013-06-15 02:52:00,
2013-06-14 21:57:00,70.2,57.0,29.91,South,180,5.0,9.0,63,0.00,,,0.00,meteohub,2013-06-15 02:57:00,
2013-06-14 22:02:00,70.0,56.8,29.91,ESE,113,4.0,8.0,63,0.00,,,0.00,meteohub,2013-06-15 03:02:00,
2013-06-14 22:07:00,69.8,57.0,29.91,SE,135,7.0,8.0,64,0.00,,,0.00,meteohub,2013-06-15 03:07:00,
2013-06-14 22:12:00,70.0,57.2,29.91,SE,135,8.0,8.0,64,0.00,,,0.00,meteohub,2013-06-15 03:12:00,
2013-06-14 22:18:00,70.0,57.2,29.91,SE,135,7.0,11.0,64,0.00,,,0.00,meteohub,2013-06-15 03:18:00,
2013-06-14 22:23:00,70.0,57.7,29.91,East,90,8.0,11.0,65,0.00,,,0.00,meteohub,2013-06-15 03:23:00,
2013-06-14 22:28:00,70.0,57.7,29.91,SE,135,8.0,11.0,65,0.00,,,0.00,meteohub,2013-06-15 03:28:00,
2013-06-14 22:33:00,69.8,57.6,29.92,East,90,5.0,11.0,65,0.00,,,0.00,meteohub,2013-06-15 03:33:00,
2013-06-14 22:38:00,69.8,57.9,29.92,ESE,113,5.0,10.0,66,0.00,,,0.00,meteohub,2013-06-15 03:38:00,
2013-06-14 22:43:00,69.8,57.9,29.92,SE,135,11.0,11.0,66,0.00,,,0.00,meteohub,2013-06-15 03:43:00,
2013-06-14 22:48:00,69.8,57.9,29.91,SE,135,5.0,11.0,66,0.00,,,0.00,meteohub,2013-06-15 03:48:00,
2013-06-14 22:53:00,69.4,57.9,29.91,SE,135,8.0,11.0,67,0.00,,,0.00,meteohub,2013-06-15 03:53:00,
2013-06-14 22:58:00,69.3,58.3,29.90,ESE,113,7.0,11.0,68,0.00,,,0.00,meteohub,2013-06-15 03:58:00,
2013-06-14 23:01:00,69.1,58.1,29.91,SE,135,6.0,8.0,68,0.00,,,0.00,meteohub,2013-06-15 04:01:00,
2013-06-14 23:02:00,69.1,58.1,29.91,SE,135,6.0,8.0,68,0.00,,,0.00,meteohub,2013-06-15 04:02:00,
2013-06-14 23:03:00,69.1,58.1,29.91,SE,135,6.0,8.0,68,0.00,,,0.00,meteohub,2013-06-15 04:03:00,
2013-06-14 23:08:00,69.1,58.1,29.90,SE,135,6.0,8.0,68,0.00,,,0.00,meteohub,2013-06-15 04:08:00,
2013-06-14 23:13:00,68.5,58.3,29.91,SE,135,6.0,8.0,70,0.00,,,0.00,meteohub,2013-06-15 04:13:00,
2013-06-14 23:18:00,68.4,58.6,29.91,SE,135,7.0,8.0,71,0.00,,,0.00,meteohub,2013-06-15 04:18:00,
2013-06-14 23:23:00,68.2,58.5,29.90,SE,135,8.0,8.0,71,0.00,,,0.00,meteohub,2013-06-15 04:23:00,
2013-06-14 23:25:00,68.0,58.3,29.90,SE,135,6.0,8.0,71,0.00,,,0.00,meteohub,2013-06-15 04:25:00,
2013-06-14 23:30:00,67.8,58.8,29.90,SE,135,5.0,8.0,73,0.00,,,0.00,meteohub,2013-06-15 04:30:00,
2013-06-14 23:35:00,67.6,58.6,29.90,SE,135,5.0,8.0,73,0.00,,,0.00,meteohub,2013-06-15 04:35:00,
2013-06-14 23:40:00,67.5,58.8,29.91,SE,135,6.0,7.0,74,0.00,,,0.00,meteohub,2013-06-15 04:40:00,
2013-06-14 23:46:00,67.3,58.6,29.91,SE,135,5.0,7.0,74,0.00,,,0.00,meteohub,2013-06-15 04:46:00,
2013-06-14 23:51:00,67.1,58.5,29.92,East,90,8.0,8.0,74,0.00,,,0.00,meteohub,2013-06-15 04:51:00,
2013-06-14 23:56:00,67.5,58.8,29.93,ESE,113,6.0,8.0,74,0.00,,,0.00,meteohub,2013-06-15 04:56:00,